GFSGL_700_spd_000.txt.gz
Wind_Speed
44 42 45 45 45 47 50 54 55 50 44 38 35 32 33 33 36 37 36 36 36 34 32 32 32 32 34 33 33 32 30 29 33 32 31 31 34 40 42 44 46 47 48
39 38 36 41 47 51 54 54 47 41 37 34 34 33 33 37 40 39 38 35 36 34 34 34 34 33 34 34 34 34 34 35 35 37 33 32 36 36 39 41 41 43 44
33 37 42 47 51 52 51 45 40 36 34 33 32 34 35 35 36 36 36 36 37 37 36 35 35 34 34 35 35 36 37 37 38 39 40 38 39 38 39 41 40 40 41
40 42 44 49 50 49 44 40 37 35 31 31 33 36 39 39 39 39 37 38 38 38 37 35 34 33 34 34 35 36 37 38 39 40 41 41 41 40 41 42 42 41 41
41 45 48 49 47 45 40 38 38 37 35 35 35 35 34 33 35 34 34 37 37 36 35 34 33 34 33 34 36 37 37 38 38 39 38 39 39 37 37 38 41 40 40
44 46 47 46 43 40 38 37 36 33 32 32 31 32 34 35 39 38 37 36 36 36 36 35 35 36 35 36 36 37 37 38 39 39 40 42 41 41 40 40 40 41 42
45 46 46 44 41 37 35 32 30 30 30 32 35 37 37 36 38 36 36 36 35 34 33 33 33 33 34 35 34 34 33 34 36 37 39 38 38 37 36 37 38 38 38
44 44 43 41 38 34 32 31 30 33 36 36 36 35 34 34 36 35 35 35 35 34 33 32 33 32 31 32 32 31 31 32 32 33 34 33 34 33 34 34 34 36 36
44 41 37 38 39 32 33 33 36 38 36 34 34 35 36 37 40 39 39 37 36 33 32 31 32 31 29 30 30 30 31 29 29 30 31 31 29 29 29 31 33 34 34
41 38 34 33 32 33 33 35 37 36 35 34 35 36 38 37 38 39 38 36 34 31 29 28 28 27 26 26 27 29 29 27 29 31 31 28 26 25 24 28 26 29 30
39 36 32 31 30 31 33 35 35 34 34 34 36 37 38 37 34 32 32 31 30 29 27 24 22 22 21 22 24 25 26 26 24 24 23 23 24 23 23 24 25 26 25
35 32 30 28 29 31 33 33 33 34 34 36 37 38 37 34 31 29 28 28 27 26 21 19 19 18 18 19 20 21 19 17 14 11 11 12 14 16 17 20 23 23 22
34 30 27 27 29 31 33 32 32 32 35 36 39 38 34 33 30 28 26 23 21 20 19 18 16 16 16 17 17 13 10 8 7 5 4 5 6 8 12 15 19 20 19
33 27 25 28 29 30 30 30 30 33 35 38 39 36 34 30 28 25 19 18 15 14 13 13 11 11 13 11 7 6 6 7 6 5 4 3 4 5 8 9 10 13 15
28 24 26 27 29 28 27 27 28 32 36 37 35 35 33 30 26 20 19 17 13 11 10 9 7 9 11 8 1 2 2 2 4 3 3 3 2 4 5 6 7 8 10
20 23 26 27 26 25 23 25 28 30 35 34 33 33 30 29 22 17 16 14 12 11 9 8 7 7 7 9 10 8 5 3 1 2 4 3 2 3 5 6 6 6 5
19 23 24 23 23 21 22 23 25 31 33 30 31 32 30 26 19 15 14 13 13 13 12 10 8 7 8 10 11 14 14 11 5 2 3 3 3 3 3 1 2 4 5
20 21 20 21 20 21 20 21 24 29 31 30 31 31 30 24 17 13 13 13 14 12 11 10 9 8 10 11 11 12 13 13 12 9 2 4 3 3 3 3 2 1 2
18 17 19 19 20 19 18 19 23 27 29 29 30 31 30 23 17 13 12 11 11 10 10 9 8 10 11 11 11 11 10 11 12 13 10 1 3 3 2 4 4 4 4
16 16 17 18 19 19 19 19 22 25 27 28 29 29 29 23 18 13 12 11 10 10 9 8 7 9 10 10 11 11 11 11 11 11 12 10 2 2 4 5 5 6 7
16 16 17 18 19 19 18 18 20 23 25 27 28 28 28 27 19 14 12 11 10 9 8 7 6 7 8 9 10 10 10 10 11 11 10 10 9 5 2 3 7 8 7
16 15 16 18 18 18 17 17 19 22 23 25 26 27 26 26 24 16 12 11 10 8 7 5 5 6 7 8 9 9 10 10 10 9 8 9 8 7 8 7 4 3 5
16 15 16 18 18 17 16 16 18 21 23 23 23 24 25 25 25 21 15 13 10 8 7 4 3 4 5 7 7 8 8 8 8 7 7 7 7 7 7 6 6 6 6
15 15 15 17 17 17 17 17 19 20 22 22 22 22 22 22 22 21 19 14 12 9 9 8 5 4 4 5 6 7 7 7 7 7 7 7 7 7 6 6 6 6 6
15 16 16 16 17 17 18 19 19 20 21 22 21 20 20 20 20 19 18 16 14 11 9 9 8 6 4 5 6 6 6 7 7 7 7 7 7 7 8 8 8 7 7
15 15 14 15 15 17 18 19 20 20 20 21 20 20 19 19 19 18 17 16 14 13 11 9 9 8 7 6 6 7 8 8 8 8 8 8 8 8 8 9 9 9 9

GFSGL_700_spd_003.txt.gz
Wind_Speed
46 49 53 48 44 44 50 53 56 55 53 49 42 38 34 35 36 40 42 42 42 38 32 30 31 30 31 29 27 26 26 24 28 26 24 23 28 32 34 33 31 40 40
45 47 41 44 44 48 52 54 54 51 47 42 39 36 33 33 29 33 34 36 37 35 32 31 33 31 33 33 30 30 29 27 28 29 28 28 28 28 28 29 29 29 30
38 38 40 43 46 49 52 53 51 48 43 40 36 30 34 36 39 40 37 36 36 34 35 36 39 39 38 35 34 32 29 27 28 28 29 27 28 28 30 30 32 32 31
36 40 43 45 48 50 51 46 41 41 40 38 34 33 32 32 32 29 29 33 35 31 32 34 33 32 32 33 34 33 31 33 32 34 34 33 32 30 31 32 33 32 33
37 42 45 47 49 46 43 43 41 40 36 32 30 27 27 28 30 36 36 37 36 36 35 32 31 33 36 35 35 37 36 38 38 38 38 34 27 27 27 27 30 30 30
41 40 43 43 42 41 41 37 34 31 28 29 28 27 27 25 32 37 35 37 37 36 36 36 33 33 35 37 34 34 35 37 38 39 39 40 37 34 36 37 37 37 38
34 33 32 37 39 38 37 29 27 27 28 27 26 26 29 30 35 40 39 39 40 39 37 36 34 32 33 35 35 34 35 33 34 35 38 37 38 37 38 38 38 39 39
34 37 34 36 39 32 28 25 29 27 29 28 29 31 36 36 41 44 42 41 41 38 35 33 33 33 32 33 32 32 32 32 32 32 32 32 34 34 35 36 37 38 38
32 29 34 39 29 27 28 26 28 28 29 31 33 36 39 39 40 42 41 39 36 33 31 30 29 29 29 29 32 32 31 30 29 29 29 30 31 31 31 33 35 36 36
30 34 31 28 28 26 26 28 28 28 30 37 34 38 39 40 38 37 35 36 34 32 30 27 25 25 26 26 28 28 29 27 27 27 27 28 29 28 29 30 28 29 29
32 36 30 27 27 24 26 26 29 29 33 34 37 37 39 37 36 36 33 32 32 31 27 22 17 21 21 21 22 24 26 24 24 24 25 24 25 26 25 24 24 25 26
29 37 34 23 20 23 23 26 29 27 31 35 38 39 36 35 35 34 31 29 25 26 23 20 19 20 21 20 20 20 20 20 17 15 14 13 12 13 16 20 22 22 22
38 35 29 19 22 21 26 25 25 27 33 35 38 37 36 34 32 31 26 23 23 22 21 20 18 17 17 16 17 16 13 11 10 9 8 7 6 6 7 10 14 18 20
31 31 22 24 26 29 25 22 25 30 30 35 37 35 35 33 32 27 23 22 19 18 17 15 14 11 11 11 9 7 8 8 8 8 8 7 6 5 6 8 10 11 13
31 27 24 24 27 28 26 26 26 27 29 33 34 33 35 32 30 24 22 20 19 17 14 11 8 10 11 11 6 3 5 7 8 8 8 8 6 5 5 5 7 8 9
26 22 21 23 23 23 24 25 26 24 27 30 30 31 32 32 26 21 19 18 17 15 12 11 10 10 9 9 7 2 1 3 5 7 8 7 6 5 5 4 4 4 4
20 19 20 20 21 21 23 24 23 26 29 30 29 29 31 32 24 19 17 16 15 14 13 12 10 8 7 7 6 7 8 7 2 4 6 6 7 6 4 4 4 2 3
18 20 17 18 18 21 23 23 22 23 26 29 30 29 29 31 25 19 16 15 15 14 12 11 8 8 11 9 8 8 8 9 10 7 4 7 6 5 4 4 5 4 4
19 19 18 17 18 20 21 21 20 22 25 26 27 29 29 30 26 21 17 15 13 13 12 10 7 9 10 9 9 10 9 9 10 10 7 2 5 5 3 4 6 6 7
20 18 18 17 18 19 20 20 19 21 23 24 25 26 27 28 29 23 17 16 13 11 10 9 6 7 7 8 9 9 9 10 10 9 9 7 1 4 6 6 7 8 9
19 19 18 17 18 19 19 19 18 19 22 24 24 24 26 27 27 26 20 17 15 12 10 8 6 5 7 8 8 8 8 8 7 7 8 7 6 4 3 5 7 8 10
18 19 17 16 17 18 18 18 19 20 22 23 24 25 23 24 25 25 23 19 17 14 12 9 7 6 6 7 7 8 7 7 7 7 6 6 5 5 5 5 5 5 5
17 17 16 15 16 17 17 18 19 20 22 23 24 24 23 22 23 23 22 21 18 16 13 11 9 8 7 7 8 8 8 8 7 7 6 5 5 5 6 6 6 6 6
16 16 16 15 15 15 16 17 19 20 21 22 22 23 23 22 21 21 20 19 18 17 15 12 11 11 9 8 8 8 8 8 8 8 8 7 7 6 6 7 8 8 8
16 15 15 14 13 14 15 17 19 20 21 21 22 22 23 23 22 20 20 19 17 16 15 14 13 12 11 10 8 8 9 9 10 9 9 9 8 8 8 8 9 9 10
17 15 14 13 13 14 15 17 19 20 21 21 22 22 22 23 23 21 20 19 18 16 15 15 14 13 12 12 11 11 10 10 11 11 11 10 10 10 10 10 10 10 11

GFSGL_700_spd_006.txt.gz
Wind_Speed
49 49 48 43 43 43 44 48 49 51 52 50 47 43 39 37 33 32 32 30 31 31 28 28 29 29 29 28 28 30 29 27 33 33 29 24 23 18 17 21 25 27 29
47 47 39 39 40 41 44 47 49 51 49 47 46 44 39 36 33 31 33 35 38 39 35 26 29 32 35 36 35 32 31 36 33 33 32 32 29 29 27 23 22 23 26
43 42 39 39 42 42 43 49 49 46 46 43 41 37 34 33 33 32 32 32 34 36 34 36 37 33 36 34 35 40 42 37 34 35 36 34 33 29 33 34 31 30 30
39 35 42 46 50 47 47 42 44 45 44 41 35 32 33 32 33 34 34 35 36 36 36 35 34 35 33 33 34 33 33 35 35 37 38 36 32 30 29 30 34 36 37
33 34 49 51 48 52 45 44 47 44 41 38 35 33 32 32 32 35 37 37 37 39 39 38 36 34 34 39 39 37 43 39 38 39 38 37 35 31 27 24 25 25 29
40 51 50 43 34 40 37 41 42 38 38 37 36 36 34 35 37 42 42 41 42 42 43 40 38 36 34 32 35 38 40 40 35 34 35 36 35 34 34 34 36 37 37
43 46 47 41 42 36 46 47 39 32 37 39 36 36 39 40 41 45 45 44 45 43 41 39 36 34 34 33 35 38 37 36 32 28 30 31 33 32 33 35 36 40 43
35 40 48 50 45 38 45 37 32 32 38 36 37 39 43 40 42 44 46 42 39 38 36 33 31 29 29 31 33 34 33 32 32 32 32 28 31 30 33 34 37 40 41
35 42 44 47 24 41 38 36 32 35 36 38 39 40 39 41 43 43 41 38 37 36 33 30 27 26 25 26 29 30 30 29 30 31 30 29 29 29 30 32 33 34 35
37 42 43 36 29 44 38 32 30 35 37 39 41 33 38 41 40 40 39 38 37 34 29 24 21 22 21 20 22 23 25 25 26 26 25 26 26 26 26 28 30 31 30
43 43 38 32 35 42 31 28 35 34 39 37 33 35 40 39 39 39 38 36 33 30 29 25 20 18 21 20 21 22 23 23 22 23 22 21 22 23 23 24 26 26 24
37 35 32 31 35 34 26 32 34 36 34 31 33 37 39 37 37 38 35 30 28 30 28 24 21 20 19 20 20 20 20 19 18 17 15 13 12 12 11 12 15 18 20
38 34 29 29 29 26 29 30 30 32 29 30 32 37 37 36 37 35 29 25 25 25 24 21 20 17 15 15 15 16 14 12 10 8 7 7 6 5 4 4 6 10 14
37 32 30 27 25 25 25 27 29 28 27 28 32 36 36 35 37 31 25 23 23 23 20 18 15 13 13 13 11 7 4 5 5 7 7 7 6 5 5 7 7 10 13
33 30 27 23 21 22 22 24 26 26 26 28 30 33 36 34 36 30 25 23 23 21 19 16 14 13 12 11 11 6 3 4 6 7 8 8 8 6 5 6 7 7 9
32 28 22 21 22 19 20 22 25 25 24 26 27 29 32 32 34 29 23 21 20 19 17 16 15 14 13 13 13 12 8 5 5 7 8 9 8 7 5 6 5 2 4
28 23 21 21 20 19 20 22 24 24 24 25 26 27 30 31 34 30 23 19 18 17 16 15 13 10 13 14 12 10 9 8 5 5 7 8 7 8 6 5 5 3 3
24 21 22 20 19 19 20 22 23 23 23 25 27 27 29 32 32 31 24 19 18 17 16 14 11 10 12 11 10 10 8 8 8 6 3 6 7 7 6 5 5 5 5
24 20 20 19 19 19 20 21 21 21 21 23 25 27 28 29 31 31 27 21 18 17 15 13 7 8 10 11 11 11 10 9 8 9 7 2 7 7 5 4 5 7 7
22 21 20 20 19 18 19 20 20 20 21 23 25 26 26 26 28 28 28 24 20 17 15 13 8 5 9 10 10 10 10 10 9 9 8 7 2 4 6 7 8 9 10
20 21 20 19 18 18 18 19 19 20 21 23 25 25 25 25 25 26 27 25 23 19 16 13 11 9 8 9 10 9 9 9 8 8 8 7 6 5 4 5 6 7 9
20 20 20 18 17 17 17 17 18 19 21 23 24 25 24 24 23 24 25 25 23 21 18 15 12 10 9 8 9 9 9 9 8 8 7 7 6 6 5 5 6 6 6
20 20 19 18 17 16 15 15 16 18 20 22 23 23 24 25 24 22 22 23 23 21 19 17 14 13 12 10 8 8 9 9 8 7 7 7 8 7 7 7 7 7 7
21 20 18 17 16 15 13 14 16 18 19 21 22 23 23 24 24 24 21 21 22 21 19 17 16 14 13 12 11 9 8 9 9 9 8 8 8 8 8 8 8 8 8
20 20 18 17 15 13 13 14 16 18 19 21 21 22 22 23 24 24 23 21 20 21 20 18 16 15 14 13 12 12 12 11 10 10 10 10 10 9 9 9 9 9 9
20 21 19 17 15 14 14 15 16 17 18 20 20 20 21 22 23 24 25 23 21 20 19 19 18 16 15 14 13 13 13 13 12 11 11 11 11 10 10 10 11 11 11

GFSGL_700_spd_009.txt.gz
Wind_Speed
47 44 43 43 47 45 37 46 53 47 46 45 46 48 46 43 39 35 34 33 32 33 32 31 32 33 33 33 35 34 33 28 33 39 35 33 30 24 21 19 26 27 26
43 42 42 45 44 31 47 56 57 45 41 42 49 48 43 39 37 36 34 33 33 32 32 32 32 33 35 36 37 39 39 40 40 38 38 38 39 31 28 25 24 25 16
42 43 41 44 39 50 54 57 47 40 39 49 50 43 46 42 36 34 34 34 34 35 36 38 39 39 38 37 38 36 38 36 36 40 47 46 36 31 28 28 33 32 26
39 43 43 44 46 47 52 52 43 34 44 45 43 43 46 41 35 33 35 36 37 40 41 41 41 40 40 39 37 38 37 39 40 37 35 37 39 36 34 33 30 34 38
40 42 44 44 43 45 52 56 38 38 40 40 38 41 48 41 35 37 40 42 44 45 46 45 44 42 40 37 37 37 37 38 40 43 43 40 37 34 31 31 31 31 32
45 47 40 42 42 49 53 42 27 30 36 38 37 46 45 40 40 42 46 46 47 47 45 43 40 37 34 33 34 36 38 39 39 39 38 34 30 29 30 32 32 31 30
51 42 37 38 44 48 57 27 34 34 35 33 43 42 40 41 45 46 47 48 44 43 41 40 37 33 32 31 30 31 33 36 38 39 37 32 26 24 28 30 32 35 36
43 42 41 42 43 44 33 31 31 32 32 38 39 38 40 40 40 43 44 43 42 38 37 34 32 30 28 28 28 29 28 31 34 36 36 31 30 25 28 29 31 34 36
44 45 43 41 42 39 38 19 31 36 37 37 38 37 34 35 40 43 42 42 39 36 31 28 27 25 23 22 24 25 24 23 26 28 29 28 27 25 26 28 28 30 30
47 50 45 39 36 34 33 36 33 35 36 38 36 32 32 37 41 42 41 43 38 32 28 27 24 22 21 20 19 20 21 20 22 22 22 24 25 23 23 24 24 25 26
48 47 41 36 33 28 28 29 30 32 35 34 30 30 33 38 40 40 42 39 33 31 31 29 24 20 18 19 19 19 19 18 18 18 19 19 19 19 18 20 22 24 25
43 41 38 34 31 29 27 28 29 31 29 28 27 27 32 35 38 38 38 32 29 30 30 26 22 18 16 15 15 15 14 13 12 12 12 11 11 11 11 12 11 13 16
38 38 36 32 29 26 24 23 25 25 26 26 26 27 30 33 35 37 33 28 25 26 25 24 21 18 16 16 16 14 10 7 7 5 5 5 5 5 5 6 5 5 6
33 33 32 30 26 21 20 22 22 22 24 24 24 26 29 32 34 35 30 23 22 23 22 20 19 18 16 15 14 9 6 3 2 2 3 4 4 4 3 3 4 6 7
31 31 28 26 22 21 20 19 20 22 23 23 23 25 27 29 33 35 33 26 23 22 21 20 18 17 14 13 13 12 8 4 3 3 4 4 5 5 4 4 4 5 5
31 29 25 23 21 20 18 18 20 21 22 20 21 22 25 28 30 33 34 28 23 21 20 18 17 14 16 18 17 16 15 12 6 5 5 6 7 6 6 6 4 2 2
30 26 22 21 21 19 18 19 19 19 20 19 20 22 24 27 28 31 32 29 24 21 19 17 14 12 15 15 16 15 13 12 11 5 5 6 8 9 8 7 5 4 3
27 24 19 20 20 18 18 18 19 19 19 19 21 24 25 25 27 27 28 29 25 22 19 16 11 8 11 14 14 14 14 13 12 12 5 4 6 5 6 6 6 7 7
22 21 18 17 18 18 17 18 18 18 19 20 22 23 25 25 25 25 25 26 26 23 20 16 12 8 9 12 13 13 12 11 10 10 10 4 3 6 6 6 6 7 7
20 18 18 18 18 18 17 17 16 16 17 19 21 22 23 23 23 22 22 23 24 24 21 18 16 11 9 9 11 12 11 11 10 9 8 7 5 3 5 7 8 8 8
18 17 19 18 18 18 17 16 15 14 16 18 20 21 22 23 22 22 21 21 21 22 21 19 17 15 13 11 9 10 11 10 9 8 7 6 5 4 4 3 4 4 4
16 17 19 19 19 17 17 15 13 13 15 17 19 21 22 22 22 22 21 20 20 20 19 19 18 16 13 12 12 10 9 10 9 8 8 7 6 5 6 5 5 4 5
15 17 19 19 17 16 15 14 13 13 15 17 18 20 21 21 22 22 22 21 19 18 18 18 17 17 15 13 12 12 10 9 9 8 8 8 8 7 7 6 6 6 6
16 17 19 19 17 16 15 14 13 14 15 16 17 19 19 20 21 22 23 23 21 20 18 17 17 16 15 15 13 12 11 12 12 10 8 8 8 8 8 7 7 7 7
15 16 18 18 17 16 15 14 15 15 16 16 17 18 18 19 20 22 23 24 24 22 20 18 17 17 16 15 14 14 13 12 12 12 11 10 9 9 9 9 8 8 8
15 16 17 18 18 17 16 16 16 16 16 17 16 17 17 18 19 20 22 24 25 25 22 20 18 17 16 16 15 15 14 13 13 12 11 11 10 9 10 10 9 9 9

GFSGL_700_spd_012.txt.gz
Wind_Speed
51 45 42 42 43 43 44 43 41 52 48 51 49 48 38 40 40 40 40 36 30 27 29 30 31 32 31 31 32 34 39 39 41 41 36 32 36 33 30 25 27 26 25
44 42 42 42 44 46 47 44 44 45 48 45 39 31 33 36 37 41 34 29 31 32 33 34 35 37 39 39 40 39 39 41 45 47 45 44 37 33 36 35 28 31 30
41 40 41 42 45 48 49 47 44 44 45 45 31 32 35 37 37 34 30 33 35 35 38 41 43 44 44 43 42 44 43 41 41 42 45 43 39 34 42 43 37 32 35
41 41 45 48 50 46 40 40 42 44 46 37 27 34 36 35 38 35 35 38 38 39 42 45 46 45 44 42 41 42 42 42 41 41 41 42 40 34 32 31 35 32 32
44 45 49 50 40 35 39 43 48 46 40 26 30 35 35 37 36 39 40 39 40 44 44 44 44 44 43 41 40 37 37 37 38 38 39 40 41 38 37 34 35 36 35
46 48 44 40 38 38 41 42 41 29 42 24 30 33 34 36 38 40 39 40 44 44 43 44 43 42 40 37 34 32 34 35 34 36 37 38 38 33 30 31 32 34 33
48 44 38 37 39 40 39 36 32 33 23 26 29 30 36 38 40 40 40 43 43 43 44 42 39 35 32 31 28 27 28 30 33 34 37 37 35 31 30 27 28 32 34
44 41 37 37 39 40 38 34 31 23 31 27 28 34 38 38 37 37 39 42 41 43 38 34 33 32 30 28 27 24 23 24 27 29 32 34 32 30 28 27 28 30 31
42 41 41 42 40 38 37 32 29 29 28 29 31 37 37 35 34 36 40 41 42 37 31 30 32 30 26 23 23 21 20 18 20 22 25 27 26 25 24 25 26 29 29
41 42 43 42 39 36 34 31 30 28 27 30 34 34 34 32 34 36 41 42 39 32 28 29 28 25 22 20 21 21 18 17 18 19 21 21 22 22 22 22 22 25 25
40 41 39 38 37 35 32 30 27 26 27 28 30 31 30 31 33 35 38 40 36 30 30 29 27 23 20 18 18 17 15 13 13 14 15 17 17 17 17 19 19 20 21
38 37 37 35 34 31 29 26 23 22 23 25 28 27 26 28 30 33 37 38 32 28 28 27 25 23 21 19 18 17 15 12 9 8 8 9 10 12 12 13 14 14 14
37 36 35 33 30 27 23 21 22 21 22 24 25 23 24 26 28 30 33 33 27 26 26 26 25 22 19 17 17 16 12 6 5 4 3 4 5 5 5 6 6 6 5
36 34 33 31 26 23 21 21 20 20 21 23 22 20 23 25 26 28 30 30 26 24 23 24 23 20 18 17 17 16 10 6 3 1 2 3 3 4 3 3 3 3 4
35 32 30 29 25 21 20 20 19 19 21 22 21 20 22 24 26 28 29 31 30 26 24 23 20 17 16 18 16 15 14 10 5 2 1 2 4 5 4 4 3 2 3
31 28 28 26 23 21 20 20 19 19 20 20 20 20 23 24 25 26 26 28 30 26 23 21 18 14 16 18 18 17 15 14 11 2 2 4 6 6 6 5 3 3 2
28 26 26 22 21 20 20 19 17 18 19 19 19 21 22 23 23 24 24 26 27 27 24 21 18 14 14 16 18 17 16 14 13 10 2 5 6 7 7 6 5 6 6
27 25 21 18 19 20 20 19 17 16 16 16 17 19 21 22 22 23 23 23 24 24 24 20 18 16 14 15 16 15 15 14 13 11 6 2 4 5 7 7 7 7 8
24 22 19 17 17 18 19 18 16 16 16 15 16 18 20 21 22 22 22 22 21 21 22 22 19 17 15 14 14 15 14 13 12 11 9 5 1 3 5 6 6 8 9
23 20 17 17 18 18 18 16 16 16 15 15 16 17 19 20 21 21 21 21 21 20 20 20 20 19 17 15 15 14 14 14 12 10 8 7 5 3 1 5 7 8 10
22 19 17 17 18 18 17 16 16 15 14 14 15 16 18 19 19 20 20 20 20 20 19 19 19 19 18 17 15 14 14 12 12 10 9 7 5 4 3 3 3 3 4
21 18 17 17 18 18 17 16 16 15 14 14 15 15 17 18 18 19 19 20 20 20 21 19 18 17 17 16 16 14 13 13 12 11 10 9 7 6 6 4 5 5 6
18 17 17 17 19 19 17 17 16 15 15 15 15 15 16 16 17 18 19 20 21 21 22 21 19 18 17 17 15 15 14 13 12 12 12 10 9 8 7 6 7 7 7
17 16 16 17 19 19 17 16 16 15 15 16 16 15 15 16 16 16 17 19 21 23 23 23 22 19 18 18 16 16 15 14 14 13 13 13 12 10 9 8 8 8 8
16 16 16 17 18 19 18 17 17 17 17 17 17 17 16 16 16 17 17 19 22 24 25 25 24 22 20 19 17 16 16 15 14 14 13 13 12 13 11 9 9 9 9
17 18 18 19 19 19 19 19 18 19 19 19 18 18 17 17 17 18 18 20 22 23 25 27 26 24 21 19 18 16 15 15 15 14 14 13 12 12 11 11 11 10 10

GFSGL_700_spd_015.txt.gz
Wind_Speed
44 46 46 45 44 45 47 49 50 50 44 43 39 41 37 34 31 31 35 39 38 32 32 34 35 36 37 38 40 41 41 41 45 45 43 44 44 42 33 31 33 33 34
44 43 43 42 45 47 50 50 48 44 43 41 44 47 36 30 29 33 37 41 34 33 34 36 38 41 43 45 45 45 44 44 45 46 42 42 44 44 43 39 34 35 34
42 43 43 45 47 50 48 45 45 42 42 42 40 30 24 26 30 34 37 35 35 36 36 39 43 45 45 45 44 43 42 41 41 43 43 41 42 42 39 36 38 42 39
44 44 44 47 47 46 47 45 40 39 38 34 25 29 23 28 33 35 36 37 38 37 40 44 46 46 47 47 44 41 39 37 36 38 38 38 39 39 39 36 34 34 39
45 44 46 46 46 46 45 42 39 36 34 26 30 23 27 30 31 35 37 38 38 39 42 44 45 47 46 42 40 37 35 33 33 34 33 32 34 36 35 35 34 34 34
46 47 47 45 43 43 44 40 37 34 31 33 23 25 27 28 34 37 38 37 38 41 43 44 45 41 37 36 35 34 32 31 31 32 29 30 30 30 31 31 31 30 32
48 48 47 46 45 44 42 39 36 33 28 20 26 25 26 31 36 37 36 36 38 42 44 43 38 36 36 36 33 32 30 27 27 28 28 28 29 30 29 29 29 30 30
48 47 46 45 44 42 40 37 35 33 30 28 27 27 29 34 35 35 34 36 39 42 42 36 34 34 32 31 29 27 24 21 22 23 24 24 24 27 28 26 28 29 29
46 45 44 43 43 40 37 35 34 31 29 26 26 29 31 32 33 33 35 35 39 41 36 30 31 30 29 27 26 24 22 19 22 21 21 20 20 21 21 23 23 25 26
43 42 41 42 41 38 36 34 33 30 25 25 28 28 29 31 30 32 34 36 39 40 30 27 28 28 28 26 24 21 19 17 17 18 19 19 19 18 17 17 19 20 21
41 41 40 39 38 36 35 33 29 25 22 23 25 26 29 29 28 30 33 36 39 38 30 26 27 27 26 24 22 20 19 17 14 13 12 13 14 14 14 15 17 18 19
40 39 37 37 36 35 33 29 25 23 24 24 24 26 28 27 27 29 32 34 37 35 29 26 26 26 24 21 22 21 17 13 9 8 7 6 7 9 9 10 12 13 13
39 37 38 37 34 32 30 26 23 24 23 22 23 25 25 25 27 29 31 31 32 32 28 25 24 24 20 20 21 20 16 11 7 5 5 4 3 2 3 4 5 5 6
39 37 35 33 30 29 27 24 23 23 22 21 22 23 23 24 27 29 29 28 28 30 27 24 22 20 21 22 20 17 16 12 7 4 2 1 1 2 2 2 2 3 4
38 35 33 31 28 28 25 23 22 21 21 20 21 22 22 24 26 27 27 27 26 27 28 24 21 17 17 20 21 19 16 14 8 3 1 1 2 2 2 2 1 2 3
38 33 32 29 26 24 23 22 21 21 20 20 20 21 22 23 24 25 26 25 25 25 27 25 21 18 17 17 19 19 18 16 13 5 2 3 3 3 3 3 3 3 3
36 32 29 26 23 22 23 21 21 21 20 19 19 20 21 22 23 24 25 25 24 24 25 25 23 20 17 16 17 19 18 17 15 13 3 4 4 5 5 5 5 5 4
35 31 28 25 22 21 21 21 21 20 18 17 18 18 19 20 22 23 23 24 24 23 23 22 22 22 19 17 16 15 17 18 16 15 12 5 3 5 6 7 7 7 6
33 29 26 25 22 21 21 21 21 20 18 17 16 17 18 19 21 21 21 22 23 23 22 21 21 21 21 20 18 15 13 13 14 13 11 9 5 4 6 6 6 7 8
31 29 25 24 21 21 21 21 21 19 17 16 15 16 16 18 19 19 20 20 21 22 22 21 20 21 21 20 19 18 15 13 12 13 11 9 7 5 3 5 7 8 10
29 28 25 22 20 21 21 21 20 18 17 16 15 16 16 17 17 18 18 19 20 21 22 23 22 20 20 21 20 19 17 15 12 11 11 11 9 8 6 5 5 5 5
28 28 24 21 20 20 20 20 19 18 17 16 16 17 16 16 16 16 17 17 18 20 22 23 23 23 21 20 19 19 18 17 16 14 12 11 11 10 8 8 8 6 6
26 25 22 20 20 20 20 20 21 19 18 17 17 18 18 17 16 16 16 17 18 20 22 23 25 25 24 22 19 18 18 17 16 15 14 13 13 12 10 9 9 8 7
25 23 20 20 21 20 21 21 21 20 19 18 18 19 18 18 17 17 17 17 19 20 21 23 25 27 28 25 22 19 18 17 16 15 15 14 13 13 13 11 10 9 9
23 22 22 22 22 22 22 22 23 22 21 21 20 21 21 20 19 19 19 19 19 20 21 23 25 27 29 28 24 20 18 17 16 16 15 14 14 13 13 13 13 11 11
23 22 22 24 25 26 26 26 25 24 23 22 22 23 24 23 22 21 20 20 21 21 22 23 25 27 29 29 24 20 18 17 16 15 15 14 13 13 13 13 12 13 13

GFSGL_700_spd_018.txt.gz
Wind_Speed
40 42 42 43 45 47 48 49 47 46 46 45 42 40 39 35 29 27 26 30 33 38 38 38 36 35 36 38 40 42 43 43 47 47 45 42 41 41 40 37 40 34 35
39 41 42 45 46 48 49 49 49 47 44 40 38 36 34 27 28 29 29 31 36 37 36 36 36 38 40 43 44 43 44 44 46 46 42 39 39 38 41 40 36 36 38
40 41 44 46 48 49 49 48 47 45 41 38 35 32 22 27 25 26 32 37 37 36 36 37 39 42 45 44 45 45 42 40 39 40 38 36 36 34 37 38 37 34 34
40 43 45 48 49 48 47 47 45 43 39 35 32 27 28 25 27 31 34 34 36 36 36 38 41 44 46 45 42 39 38 37 36 35 32 33 32 29 32 34 34 33 32
42 45 47 48 49 48 48 47 44 40 36 33 29 27 21 27 28 31 32 35 36 35 37 39 42 44 42 38 38 38 39 38 35 33 30 29 28 26 27 19 30 29 29
44 46 47 49 49 48 47 45 44 39 35 32 27 24 27 27 29 30 33 34 34 36 38 40 43 40 35 35 35 35 34 33 30 28 27 26 23 25 23 23 25 27 26
44 45 47 47 47 46 45 43 41 37 34 32 29 26 25 27 30 32 31 32 33 35 38 42 42 35 34 34 33 31 29 26 25 25 26 25 22 20 23 19 25 25 24
44 46 46 46 45 45 42 40 37 35 33 30 28 26 26 28 30 30 30 30 32 35 38 41 38 32 32 32 32 29 26 24 22 24 25 23 22 18 20 25 30 27 24
45 45 45 44 45 42 40 38 36 35 32 28 26 25 26 26 27 29 29 30 32 35 37 40 36 31 31 30 29 28 25 22 20 19 20 21 19 17 17 17 19 21 21
45 44 43 43 43 41 40 37 34 33 30 25 25 24 23 25 27 27 29 31 33 35 36 36 32 29 29 27 26 26 26 22 20 17 16 17 15 14 16 17 16 19 17
44 41 40 42 41 39 38 35 32 30 27 26 25 23 24 25 26 26 29 32 34 34 35 34 29 26 25 22 24 25 25 22 17 11 10 10 10 9 11 14 14 15 16
41 38 39 40 39 36 35 32 30 27 26 26 24 23 24 25 25 26 29 32 33 33 33 33 29 24 21 21 24 24 23 20 15 10 8 9 8 7 5 7 9 10 11
39 37 38 39 36 34 32 30 28 26 24 24 23 22 24 24 24 26 28 30 30 30 30 31 28 23 20 21 23 23 22 20 14 10 7 6 6 4 3 1 1 4 6
38 36 37 38 35 33 31 28 26 25 24 23 21 21 23 22 22 25 27 28 28 28 27 27 28 25 22 22 22 23 21 19 14 8 6 4 4 4 4 5 5 4 4
36 36 36 36 34 31 28 27 25 23 23 22 20 21 21 20 21 24 26 27 26 25 24 25 26 24 21 20 20 21 21 19 17 10 5 3 1 2 2 3 4 3 1
36 35 35 34 32 29 28 26 24 23 22 21 20 19 19 19 20 23 25 25 25 24 23 23 24 24 23 20 18 18 19 19 17 15 6 3 2 2 1 2 3 2 2
35 34 32 32 29 27 26 24 24 23 23 21 20 19 18 18 19 22 23 23 23 24 24 23 23 23 22 22 20 18 17 17 17 15 12 5 5 5 4 4 5 4 3
33 31 30 30 28 26 25 23 23 24 22 21 21 19 18 17 18 20 21 21 22 23 24 24 23 22 21 22 21 19 18 16 16 16 15 12 6 5 6 6 7 7 5
31 29 30 29 28 25 23 23 23 23 23 21 19 19 17 16 17 18 19 19 19 20 21 23 23 23 21 21 21 21 19 17 15 13 14 13 11 8 6 6 7 7 7
30 29 29 29 28 24 22 22 23 23 21 20 18 18 17 16 16 17 17 17 17 17 20 21 23 24 24 22 21 20 19 19 17 16 13 12 11 10 9 7 7 8 8
29 29 29 28 26 23 21 22 22 22 21 20 18 18 17 17 17 16 17 17 16 17 19 20 21 23 24 25 22 20 19 18 17 15 14 12 10 10 9 8 7 7 6
29 28 27 27 25 21 21 22 22 21 21 20 19 19 18 18 18 18 17 17 17 17 18 18 20 22 24 25 25 22 20 18 17 16 14 13 12 11 9 9 8 7 7
29 27 26 25 23 21 21 22 22 21 21 20 20 19 20 19 19 19 19 19 19 18 19 19 20 22 24 25 27 25 20 18 17 16 16 14 13 12 12 11 10 8 7
28 26 26 24 23 23 23 23 24 24 24 23 22 21 21 21 21 21 21 21 20 20 20 20 21 22 23 25 27 26 22 18 16 16 15 15 14 13 12 12 11 11 10
28 27 26 25 24 24 25 27 28 28 29 28 26 24 22 22 23 23 23 22 21 21 21 21 21 22 22 24 26 25 22 19 16 15 15 14 14 13 12 12 12 12 13
27 26 25 24 24 25 26 28 30 31 32 31 30 28 27 26 26 24 25 25 23 22 22 21 21 21 22 22 24 25 22 18 16 15 14 14 13 13 12 12 12 12 12

GFSGL_700_spd_021.txt.gz
Wind_Speed
39 38 34 39 42 44 45 45 46 45 45 44 43 40 36 34 31 26 26 28 29 33 37 39 38 37 36 36 38 41 44 45 49 46 45 43 40 41 40 37 35 37 38
36 32 38 41 43 44 44 45 46 45 45 44 41 37 34 31 26 26 27 28 31 35 38 38 38 37 37 39 42 44 46 44 44 42 38 37 37 35 37 36 34 34 37
32 35 39 41 43 44 45 45 45 46 45 43 39 35 31 28 27 29 26 30 32 36 37 38 37 38 38 41 44 44 41 38 39 40 39 36 35 33 33 32 32 31 34
34 36 39 42 44 45 46 46 46 46 45 42 37 33 30 26 26 28 29 31 34 34 35 35 36 37 40 43 41 36 36 38 37 37 35 33 30 29 28 26 26 26 27
34 36 40 42 44 46 46 46 46 45 42 40 36 32 28 25 26 27 29 30 31 33 32 33 35 37 40 38 34 34 36 36 34 33 32 30 27 24 25 24 22 20 21
35 38 41 43 44 45 45 44 44 42 40 38 35 31 28 26 24 26 28 29 30 30 32 33 35 37 38 33 31 33 34 33 31 30 29 25 23 22 22 21 19 23 21
36 39 41 43 44 44 43 42 41 40 38 36 33 30 27 25 24 25 26 28 28 29 32 34 35 36 36 32 31 32 30 28 28 27 27 26 26 22 20 17 19 19 22
37 39 41 44 44 43 41 41 40 39 36 33 30 27 25 24 24 24 25 26 26 30 32 34 34 36 34 31 31 29 27 26 26 24 22 21 21 21 20 15 17 26 23
38 40 43 44 44 41 39 40 38 37 33 30 27 25 24 24 22 24 24 24 26 29 31 32 34 35 32 29 27 27 28 26 25 23 21 19 18 16 17 16 15 14 24
38 41 43 43 41 38 39 38 36 35 31 29 26 24 24 22 22 23 24 25 27 28 29 30 32 32 28 25 25 26 27 26 24 19 14 13 12 11 12 14 15 15 12
40 42 42 40 37 37 37 35 34 32 30 27 25 25 24 22 22 23 23 25 27 29 29 29 29 29 26 23 23 25 26 25 23 18 12 11 10 9 8 9 12 14 15
41 41 41 38 36 35 35 33 31 29 26 24 24 24 23 22 21 21 22 24 27 29 28 28 27 27 25 22 21 22 24 23 22 15 12 10 9 8 6 5 6 7 8
40 41 39 35 34 34 33 31 29 27 24 24 23 23 22 20 20 19 21 23 26 27 27 27 26 26 25 22 21 21 22 22 20 13 9 8 7 7 7 6 4 1 2
40 38 35 33 31 31 31 29 27 25 24 23 23 22 21 19 18 17 19 22 24 24 25 25 24 24 26 25 22 21 21 21 19 13 7 5 4 5 5 6 6 5 6
35 34 33 32 30 29 29 27 25 24 22 22 22 22 20 18 17 16 18 20 22 22 23 23 23 22 22 23 23 21 19 19 19 18 8 5 3 2 2 3 4 4 2
33 33 33 31 28 28 27 25 23 22 21 22 21 21 20 17 15 15 17 19 19 20 22 22 22 22 21 21 21 21 19 17 17 16 14 6 4 4 3 3 3 3 2
33 32 31 29 27 27 27 25 23 21 21 21 22 20 19 17 15 14 15 17 17 18 20 21 22 21 21 20 20 20 20 18 15 14 13 11 7 6 6 6 5 4 4
31 31 30 28 27 27 26 24 22 21 20 21 23 21 19 17 15 13 14 15 15 15 17 19 21 22 21 21 20 19 19 19 18 15 14 12 10 7 6 7 7 6 5
31 29 28 27 26 27 26 24 21 20 21 21 21 20 19 18 16 14 14 15 15 14 15 17 19 20 22 22 21 20 18 17 17 17 14 12 12 9 7 5 5 6 6
31 29 27 26 27 27 26 23 19 19 19 20 19 19 19 18 17 16 15 15 15 15 14 15 17 18 20 21 23 22 21 18 17 17 16 15 12 11 9 7 6 5 4
32 30 28 27 27 26 24 21 18 19 19 19 18 18 18 18 18 17 17 16 16 16 15 15 16 17 19 20 22 23 22 20 17 15 15 15 14 12 10 9 8 6 5
32 31 30 28 26 25 23 20 20 20 19 19 18 18 18 18 18 18 18 17 17 17 17 16 17 17 18 20 21 23 23 21 19 16 14 14 14 13 12 10 9 8 7
33 32 30 28 27 25 23 20 21 22 22 21 22 21 21 20 19 20 20 20 19 18 19 18 18 18 18 19 20 21 22 21 19 17 15 13 13 13 12 12 11 10 8
35 32 30 28 26 25 23 22 22 22 24 25 25 25 25 24 23 21 20 22 22 21 20 20 19 19 19 19 19 20 21 21 19 16 14 13 13 13 12 12 11 11 10
35 32 29 27 25 24 22 22 23 24 25 27 28 29 29 28 26 25 23 23 23 23 23 22 20 19 19 19 19 19 20 20 18 16 14 13 12 12 12 12 12 11 11
34 31 28 26 24 22 21 21 23 24 26 27 28 29 31 32 31 31 29 27 26 25 24 25 23 21 20 19 19 19 19 19 18 16 15 13 12 12 12 11 11 11 11

GFSGL_700_spd_024.txt.gz
Wind_Speed
36 31 41 36 33 35 37 39 41 42 42 42 42 41 40 38 35 31 27 26 29 29 30 33 36 38 36 35 34 34 33 34 39 45 39 36 37 39 39 38 38 36 33
34 37 35 32 33 36 38 40 42 43 43 43 43 42 40 37 31 25 29 32 31 28 32 34 38 39 39 37 38 40 42 42 44 42 39 40 39 38 38 38 36 34 29
36 34 32 31 34 36 39 42 43 44 43 43 42 41 40 35 29 25 30 32 31 32 33 36 37 37 36 36 38 41 44 41 38 39 39 38 37 35 33 32 28 26 27
34 30 30 32 35 38 40 42 44 44 43 42 41 41 38 32 28 26 26 29 30 31 32 33 34 34 34 37 38 40 39 36 36 37 37 36 32 28 25 24 23 21 19
29 29 31 34 37 39 41 43 43 42 41 41 41 39 35 31 28 27 26 27 28 29 31 31 32 33 34 36 37 36 33 33 35 35 34 32 28 23 23 23 24 22 20
30 31 32 35 37 39 41 42 41 41 41 40 38 36 31 30 27 24 23 24 26 28 29 29 32 34 34 34 34 31 30 31 30 31 31 31 28 23 24 23 20 20 20
30 30 33 36 37 40 41 41 40 40 39 37 35 32 30 29 26 24 23 23 25 26 27 30 31 32 33 33 32 28 26 26 29 29 30 26 25 21 22 24 20 17 18
29 30 33 36 38 40 42 41 39 38 37 35 33 29 28 26 25 23 22 23 24 25 28 30 30 30 31 32 29 25 25 27 27 26 27 26 24 20 19 20 19 18 19
28 32 34 37 39 41 41 39 37 36 35 33 32 28 25 25 23 22 22 22 22 25 27 29 28 28 29 30 27 25 25 26 26 26 24 20 16 15 16 17 18 18 13
30 32 35 38 40 41 40 37 34 34 33 31 30 26 24 24 22 21 21 22 22 24 26 27 27 26 27 28 26 25 24 25 26 24 18 15 13 11 13 13 12 14 13
30 33 37 38 40 40 37 34 32 32 31 30 27 24 23 22 22 20 20 20 22 24 25 24 25 25 25 26 24 22 23 24 24 22 15 12 10 9 9 9 11 13 14
30 36 37 39 39 36 34 32 32 30 29 27 25 23 22 21 20 20 20 19 21 23 23 23 23 24 23 23 24 21 21 22 22 20 12 10 8 7 7 7 8 9 10
33 35 37 37 35 34 33 31 30 30 26 25 23 22 21 22 20 18 18 18 20 22 21 22 22 22 22 22 22 22 20 20 21 19 11 8 6 5 4 6 6 7 5
32 35 36 35 34 34 33 30 28 27 25 23 21 21 21 20 20 18 17 17 19 19 20 20 21 21 21 22 22 23 21 19 19 18 11 7 5 4 2 4 5 5 5
33 34 34 33 34 33 30 28 27 25 24 22 20 20 21 20 19 17 16 16 17 18 18 19 20 20 21 21 21 21 21 20 18 18 17 9 6 5 4 2 1 2 1
32 33 32 32 33 31 29 28 26 24 23 20 19 20 21 20 19 17 16 15 15 16 16 17 18 18 19 20 20 19 19 19 19 17 16 14 8 7 7 6 7 7 6
32 31 31 33 32 30 28 27 25 25 22 20 20 20 20 19 18 17 16 16 15 15 14 15 17 17 18 19 20 20 19 18 18 17 15 14 13 9 8 9 8 8 7
31 31 31 32 32 30 28 27 26 25 23 20 18 19 19 19 17 17 17 16 16 14 14 14 15 16 18 19 20 21 20 18 17 17 16 14 13 12 9 7 7 8 8
32 32 32 32 31 29 28 27 26 24 23 20 19 19 19 18 17 17 17 17 17 16 16 15 15 15 16 18 19 21 21 20 18 16 15 15 13 12 11 9 6 6 7
34 33 33 32 31 29 28 27 25 24 23 21 19 18 19 18 17 17 17 17 18 18 17 16 16 16 16 16 18 20 21 21 20 17 15 14 14 12 11 10 8 6 5
37 35 34 33 32 30 29 27 25 23 23 21 20 18 19 18 18 18 18 18 18 19 19 19 18 17 17 17 18 19 20 21 20 19 16 14 14 13 12 10 9 7 5
39 37 35 34 33 31 30 28 26 24 23 22 21 20 21 21 20 20 20 19 20 21 21 21 20 19 18 18 18 18 19 20 20 19 18 15 13 13 13 11 10 9 7
39 37 36 36 34 32 30 28 26 25 24 23 23 23 24 24 23 23 22 22 22 22 22 22 22 21 20 19 18 18 18 18 19 19 18 16 14 13 13 13 12 10 9
39 39 39 37 34 31 29 27 26 25 24 24 24 24 25 25 26 26 26 25 25 24 23 23 23 23 23 21 19 19 18 18 18 17 17 16 15 13 13 13 12 11 10
39 37 35 32 30 29 28 27 25 23 23 23 23 24 24 25 26 28 29 28 28 28 27 26 25 24 24 23 21 20 19 18 18 17 16 16 15 14 13 12 12 12 11
36 35 33 30 27 27 29 27 25 24 23 25 24 23 23 24 24 26 27 28 30 29 29 30 28 27 25 26 23 22 21 19 18 17 16 16 15 14 13 13 12 12 11

GFSGL_700_spd_030.txt.gz
Wind_Speed
31 32 35 37 40 40 45 36 33 30 33 35 37 38 39 40 40 41 36 33 33 30 28 32 25 28 36 37 40 41 41 40 43 44 43 45 46 45 42 38 37 39 38
36 35 38 39 42 43 49 35 34 34 34 36 39 39 39 40 40 39 39 36 32 28 25 24 30 38 42 40 39 37 36 37 41 46 45 44 44 43 38 37 35 33 33
41 37 39 41 47 38 45 32 31 33 34 38 39 39 39 40 39 36 36 34 30 28 26 26 30 34 37 34 34 34 36 38 40 43 44 42 41 37 35 34 32 31 28
41 38 41 43 43 39 38 29 31 31 36 36 37 38 38 39 36 32 32 32 30 28 28 30 31 31 31 32 32 34 36 38 39 39 39 37 35 32 32 32 31 25 26
40 39 39 47 46 35 31 30 31 32 33 37 37 37 35 36 33 31 32 31 29 28 28 30 29 31 31 31 32 34 34 35 35 36 35 33 32 32 30 28 27 26 23
39 39 45 40 42 35 30 30 30 30 32 37 37 36 35 34 31 28 30 28 27 28 29 28 29 29 31 33 34 34 33 34 34 34 32 32 30 30 32 31 31 32 30
42 42 42 51 34 30 27 30 31 31 33 35 36 34 36 34 31 28 28 27 27 29 29 27 27 27 29 30 31 31 31 31 33 33 32 31 32 31 31 27 24 23 22
43 43 38 31 37 29 28 32 26 30 34 34 34 32 33 34 30 28 27 28 29 29 27 27 26 27 28 30 30 29 29 29 29 28 28 29 29 27 24 21 19 19 15
46 44 39 34 23 24 27 24 28 31 34 33 33 32 29 33 29 28 28 28 29 27 26 26 25 26 27 27 28 28 28 27 27 27 26 27 27 21 19 18 15 15 16
50 50 38 21 18 27 23 24 29 32 32 33 33 29 29 32 31 28 27 28 28 26 24 23 24 24 25 26 28 28 27 27 27 24 22 23 21 17 15 14 14 14 17
47 39 31 21 21 20 23 28 31 32 31 32 32 28 28 30 29 28 27 27 26 25 23 21 24 23 23 25 26 27 26 26 25 26 23 22 18 14 12 11 9 11 16
41 31 24 18 18 23 26 30 33 32 31 31 31 30 28 28 30 28 24 23 25 23 21 20 21 22 21 23 24 24 25 25 23 23 22 21 19 13 11 10 11 12 11
32 26 23 23 22 26 30 34 35 35 29 30 30 30 29 29 29 27 24 22 23 23 21 19 20 21 20 20 22 22 22 22 22 21 22 20 20 15 12 10 9 8 7
23 23 25 23 24 28 33 33 33 35 34 32 31 30 29 29 26 26 26 27 24 22 21 20 19 19 18 18 19 20 22 23 23 22 21 21 19 18 14 13 10 10 12
19 19 22 25 29 33 33 34 33 32 34 33 29 29 29 29 27 26 26 27 27 23 20 19 19 19 18 18 18 19 20 21 23 23 21 20 20 18 16 14 14 13 14
20 23 27 31 32 34 35 35 34 32 31 31 29 28 28 28 27 26 26 26 26 26 23 21 19 19 18 18 18 18 19 20 22 24 23 21 19 19 17 16 14 14 14
26 29 31 33 34 35 36 37 38 36 34 33 32 29 28 26 26 25 24 25 24 24 22 21 21 20 19 18 18 18 18 20 21 23 23 22 19 18 18 16 15 12 11
30 32 34 36 37 37 38 39 38 37 36 32 30 30 28 26 24 24 24 24 22 21 20 20 20 20 19 19 18 19 19 19 20 22 23 23 21 18 17 16 15 13 11
34 36 38 40 41 40 41 41 40 37 35 34 32 29 29 26 23 23 24 23 21 19 19 19 19 20 20 19 18 19 19 19 19 20 21 21 21 19 16 16 15 14 12
37 39 39 40 42 44 45 43 41 36 35 32 32 30 28 27 24 23 23 23 21 20 19 20 19 20 20 20 19 20 19 19 19 19 20 21 20 19 17 15 15 14 12
43 37 38 43 44 45 41 38 33 34 36 35 32 29 27 26 25 26 26 23 22 21 21 20 19 20 21 22 21 21 21 20 19 19 19 19 19 19 17 15 14 14 13
47 47 45 40 37 37 37 37 35 36 32 32 30 28 25 24 24 25 25 26 26 24 24 23 22 21 21 22 22 21 21 20 20 18 19 18 18 18 17 15 13 13 13
50 49 46 42 39 40 39 36 37 37 32 27 27 28 24 23 24 25 27 26 24 23 25 25 25 24 23 22 23 23 22 21 21 19 19 18 17 17 17 15 14 12 12
50 49 46 44 38 43 35 30 34 33 30 26 27 27 27 25 22 24 25 25 27 27 27 26 27 28 27 26 25 24 24 24 23 21 20 19 17 17 16 15 13 13 11
44 43 40 39 35 32 34 36 38 36 32 28 29 33 32 30 29 29 28 27 26 27 26 25 24 24 25 27 26 25 26 24 25 23 20 19 18 17 16 15 13 12 11
43 39 36 32 31 32 36 36 35 30 29 30 30 30 31 31 30 31 30 26 25 26 25 25 25 25 25 25 26 27 25 26 24 25 24 21 19 18 16 15 14 12 11

GFSGL_700_spd_033.txt.gz
Wind_Speed
30 29 29 31 34 36 40 45 45 49 36 33 34 35 34 34 35 35 37 34 32 33 32 31 28 28 28 29 34 36 45 42 42 42 39 40 42 42 40 39 39 36 34
36 34 35 35 37 39 42 48 46 48 38 34 35 34 32 33 37 36 35 34 32 33 32 30 27 26 25 30 35 37 37 36 37 41 40 41 41 39 38 36 34 33 33
35 38 40 38 41 45 45 46 48 51 33 32 34 32 33 35 38 37 35 35 33 32 30 29 28 29 29 29 30 30 32 33 35 40 41 38 38 36 34 32 32 32 32
36 37 35 38 44 44 46 42 46 33 27 34 31 31 35 35 36 32 32 32 32 31 30 29 29 30 30 30 29 29 31 33 35 35 35 34 33 31 31 32 33 31 32
41 40 38 42 44 48 45 48 38 29 31 32 32 33 30 33 35 30 30 31 31 30 29 29 30 30 30 29 27 29 32 33 32 32 32 32 30 29 29 30 33 32 24
40 43 42 45 47 48 48 37 33 29 30 38 26 29 27 33 33 29 28 29 30 29 28 28 28 28 28 27 28 30 31 32 32 33 33 32 28 27 29 31 29 26 23
39 41 46 50 54 52 52 42 33 30 32 25 26 29 31 33 33 28 27 29 30 29 29 28 27 28 25 25 28 28 28 29 31 31 31 30 29 28 30 28 23 23 21
40 44 48 50 53 56 52 35 26 29 28 22 27 31 33 31 32 29 28 29 30 29 28 28 28 27 24 25 27 26 26 27 28 29 30 29 28 27 28 24 21 21 17
41 46 51 57 58 57 40 29 34 26 23 26 30 31 30 30 31 29 29 29 29 29 27 26 27 26 22 24 24 24 25 25 25 26 27 27 26 26 23 21 20 19 16
45 49 53 57 55 37 34 39 26 23 25 29 31 31 29 29 30 29 30 29 29 27 26 27 26 23 22 23 22 23 23 24 24 24 23 24 23 23 18 18 18 16 15
52 50 53 44 39 36 30 26 24 25 27 31 32 30 28 26 27 28 29 28 26 26 25 25 25 21 21 21 21 21 22 23 24 24 23 23 20 21 16 15 15 14 13
47 47 37 34 25 22 18 19 25 29 32 28 29 30 28 28 27 28 28 26 24 24 25 25 23 22 21 20 19 20 20 22 22 22 22 22 21 18 17 14 13 13 12
32 26 21 19 17 18 21 25 30 31 32 31 30 31 30 29 29 28 27 25 24 23 23 25 23 22 20 19 19 18 18 19 20 21 22 21 21 20 18 15 13 14 12
19 20 19 18 19 22 26 30 31 32 34 35 33 31 31 30 29 28 27 25 25 25 24 23 24 22 20 19 17 17 17 18 19 21 23 23 22 21 19 17 14 14 16
18 18 20 22 25 28 30 33 34 34 34 34 33 32 31 30 29 29 27 27 26 25 26 23 21 21 21 18 17 16 17 17 19 19 21 23 23 21 19 18 16 14 15
20 23 25 28 30 32 33 35 35 35 34 34 34 33 30 29 28 28 27 26 26 25 25 23 21 20 19 17 16 16 16 16 18 18 20 22 23 22 19 18 17 16 13
26 28 30 32 34 36 36 38 40 37 36 36 35 33 31 29 27 28 27 25 28 26 23 22 21 20 19 18 16 17 16 16 17 17 18 20 22 22 21 17 17 15 14
29 31 33 35 38 40 42 39 39 41 41 40 36 32 29 28 28 27 26 25 27 24 22 21 20 19 19 18 17 17 16 16 16 16 17 18 20 20 20 18 17 16 13
37 39 41 43 44 44 40 42 42 46 46 42 35 31 31 30 28 26 24 25 24 24 22 21 19 18 18 17 17 17 17 16 15 15 16 16 17 18 19 19 16 16 14
41 43 45 47 47 44 44 45 46 46 44 41 34 32 31 31 28 25 24 22 24 24 22 22 20 18 17 17 17 16 16 16 15 15 15 15 15 16 17 18 17 14 14
48 49 50 50 49 48 44 41 40 40 40 37 34 31 31 32 27 24 22 22 23 27 25 24 22 19 18 18 18 17 17 17 16 15 16 15 15 15 15 16 16 14 12
50 51 51 50 48 46 44 39 40 41 41 40 30 27 27 27 26 25 23 22 18 23 24 23 22 20 19 20 19 17 16 18 18 17 16 16 14 14 14 13 14 14 12
50 48 46 44 43 41 40 39 38 37 43 32 24 25 24 25 25 25 22 20 17 21 22 21 22 22 23 22 22 21 21 17 16 18 17 18 15 14 13 12 12 12 11
47 46 45 44 42 39 35 32 25 26 28 27 27 27 25 27 28 29 26 22 23 21 21 24 27 26 26 26 25 24 23 22 21 19 17 19 17 15 14 12 11 11 10
45 44 43 42 41 38 33 28 26 31 33 31 30 26 25 26 27 29 32 31 29 29 32 34 29 25 24 25 25 24 23 24 23 21 20 19 20 18 16 13 12 11 10
43 42 42 40 37 34 30 25 21 26 31 32 28 26 28 27 26 27 27 27 27 27 27 30 25 25 24 23 23 23 23 23 24 22 20 21 20 20 19 15 13 12 10

GFSGL_700_spd_036.txt.gz
Wind_Speed
24 26 29 32 35 35 36 42 40 47 56 48 52 49 50 38 38 39 39 35 35 35 37 35 34 33 30 28 26 29 35 38 41 44 42 40 41 43 43 42 41 39 38
20 22 24 28 34 35 36 38 48 46 45 50 54 57 40 39 40 36 32 32 34 35 35 34 33 34 31 27 27 29 32 33 35 38 38 38 41 41 40 38 36 35 33
29 30 32 29 28 31 37 37 41 44 52 53 52 43 38 39 34 43 33 31 33 35 37 35 34 32 30 29 30 30 29 29 32 35 38 39 38 37 36 34 32 29 29
28 31 33 33 34 42 40 38 48 45 50 49 49 42 32 36 47 37 30 29 32 36 37 35 34 32 32 31 30 28 29 30 32 35 36 35 35 32 33 32 29 28 28
32 31 31 32 37 41 44 44 64 48 63 52 43 43 39 42 36 28 28 30 33 35 36 35 34 33 31 31 29 28 29 30 32 33 34 33 32 31 30 29 29 29 22
33 33 33 39 41 42 51 41 52 57 52 46 42 37 40 31 26 28 31 32 33 34 34 34 33 32 30 29 28 27 28 31 32 33 33 33 32 31 30 28 28 28 21
33 35 36 38 43 42 45 51 54 58 46 34 38 43 27 26 27 30 32 32 32 34 34 34 34 31 29 27 26 25 26 29 32 33 32 30 30 30 28 27 27 24 21
33 35 38 43 48 52 55 56 55 37 38 39 29 27 27 28 30 32 32 31 32 33 34 34 32 30 28 26 24 23 24 27 28 30 30 28 29 28 27 27 25 19 17
33 37 39 44 53 57 54 38 37 34 25 24 22 25 29 30 30 31 32 32 33 33 33 32 30 28 27 24 23 22 22 24 25 27 27 28 28 28 27 28 23 19 15
35 39 42 50 54 38 37 38 26 22 21 23 26 29 31 30 30 31 32 32 33 33 32 30 28 27 26 24 22 21 21 21 22 23 25 26 25 25 25 26 23 19 15
34 34 40 39 36 39 38 25 24 23 23 25 30 30 32 32 32 32 32 32 31 31 29 28 27 26 24 24 22 21 20 19 20 21 23 24 24 24 24 23 23 21 16
36 34 35 37 34 29 26 25 24 26 29 31 32 31 32 34 34 34 33 32 31 30 27 27 26 26 24 24 22 20 19 19 19 20 21 22 23 22 22 21 21 21 19
33 31 28 26 26 26 25 28 28 30 33 34 35 36 35 35 36 35 33 32 31 30 27 26 25 25 26 24 22 20 19 18 18 18 19 20 22 23 23 20 20 20 18
24 24 26 26 25 28 29 30 33 34 36 37 37 38 37 36 34 33 34 32 30 29 27 27 26 24 25 24 22 21 20 18 18 17 18 19 21 23 24 22 19 18 17
25 25 24 26 28 30 32 34 36 37 38 39 39 40 39 37 35 35 34 33 30 27 28 26 24 23 24 24 22 21 21 18 17 17 18 19 19 22 23 22 19 19 18
24 25 27 29 31 34 36 37 37 39 40 40 39 40 39 39 37 34 32 31 31 28 29 25 23 23 23 22 21 20 21 18 17 17 17 18 18 20 21 22 20 19 17
27 29 31 34 37 39 41 43 45 42 39 37 37 38 41 42 37 32 31 30 30 29 29 24 24 23 22 21 19 19 20 18 18 17 16 16 17 18 20 20 19 17 17
33 35 38 41 43 44 45 46 46 46 44 42 40 43 42 38 36 34 33 31 30 28 28 23 25 23 22 21 19 18 19 18 18 17 16 15 15 16 18 18 18 17 15
38 40 43 45 47 48 50 50 51 50 49 47 43 41 35 34 33 32 29 30 30 28 26 22 24 23 23 21 19 18 18 18 18 17 16 15 15 16 17 17 16 17 15
42 44 46 47 48 49 49 49 49 48 46 45 40 37 33 34 35 33 30 27 28 27 27 22 28 27 24 22 19 18 18 18 18 17 16 16 15 15 16 15 15 15 14
45 47 48 49 48 48 47 46 45 44 42 40 36 33 36 38 37 28 27 22 24 26 24 20 22 23 25 23 21 19 17 17 18 18 17 17 16 15 16 14 13 13 13
48 49 50 49 48 47 46 45 43 40 39 37 34 34 37 37 23 22 22 20 21 23 22 22 23 22 22 22 22 22 19 18 15 16 18 18 17 16 15 14 13 12 12
48 48 48 47 45 44 44 43 41 36 34 27 19 21 20 18 18 21 21 21 22 21 21 18 14 20 21 20 21 22 22 20 19 19 16 16 18 17 16 15 13 12 11
47 46 46 45 43 42 42 41 40 35 29 26 17 23 26 22 21 24 21 20 22 23 23 23 22 20 22 24 25 24 24 24 23 22 21 20 18 18 17 17 14 12 11
45 45 44 43 42 41 40 37 33 28 22 21 22 26 26 28 25 23 23 25 25 26 27 29 30 30 31 33 32 26 24 23 23 23 23 21 21 20 17 18 16 14 11
43 41 40 39 38 37 37 35 31 26 25 20 20 22 24 27 28 25 24 24 25 25 25 25 27 30 31 31 27 24 24 23 21 22 23 24 22 20 19 19 18 17 13

GFSGL_700_spd_039.txt.gz
Wind_Speed
15 16 17 20 22 23 28 32 35 38 38 41 42 47 46 50 53 50 43 39 44 45 41 41 37 37 37 35 33 31 32 33 35 34 36 38 39 40 41 42 42 41 40
16 18 21 22 25 26 28 29 27 33 41 38 42 45 49 52 52 44 41 42 45 40 39 37 35 35 35 36 35 33 32 33 34 36 34 35 37 39 41 40 39 38 38
22 24 24 23 25 26 29 29 30 38 39 47 52 49 52 56 47 38 43 45 40 35 32 34 36 37 36 35 34 33 33 33 34 34 33 35 36 36 37 38 37 35 33
28 28 28 27 29 30 30 37 38 44 39 44 51 48 52 49 38 39 45 35 31 32 33 35 38 38 36 36 35 34 34 34 33 32 33 34 35 34 35 36 32 32 30
32 30 30 31 33 33 33 37 42 44 43 51 51 51 39 40 44 43 31 32 31 33 36 38 38 38 37 36 35 34 34 33 31 32 32 32 32 33 34 33 33 28 25
28 31 31 33 33 33 35 44 45 50 51 54 39 34 33 38 32 28 29 31 34 37 37 37 37 37 37 35 34 33 33 32 30 31 30 31 31 33 33 32 31 28 23
27 29 33 33 36 40 46 44 47 54 45 33 37 36 27 24 27 28 32 36 35 36 36 37 36 36 36 35 33 32 31 29 29 29 28 29 30 31 32 31 29 28 24
25 27 31 34 38 41 44 47 51 39 38 43 32 23 24 27 28 32 33 34 35 35 36 36 36 35 34 33 32 30 28 26 28 27 27 27 29 29 30 29 28 26 21
27 29 32 36 41 41 38 47 41 41 43 32 28 27 29 30 33 33 34 36 36 36 36 36 35 34 33 31 29 29 26 24 25 25 25 26 26 28 29 29 28 26 21
26 29 33 42 50 37 43 37 42 43 32 30 29 31 32 34 35 35 36 37 38 37 37 36 35 34 32 30 29 28 24 23 23 23 24 24 25 26 27 28 28 27 24
24 26 28 33 40 37 39 43 39 33 33 31 33 34 35 37 37 37 38 38 38 38 38 35 34 34 31 29 29 27 24 23 22 23 22 23 23 24 25 26 26 27 25
32 36 37 36 37 38 36 33 33 34 33 35 37 37 38 39 39 38 39 41 39 39 37 35 33 33 30 28 28 26 24 23 23 21 21 22 23 24 24 24 23 23 24
34 35 34 32 30 31 32 33 32 35 38 39 40 41 41 41 40 40 40 40 40 39 37 34 33 31 29 27 28 27 25 23 22 21 21 22 22 23 23 23 23 23 22
28 27 27 29 31 32 32 34 37 38 40 42 43 44 44 44 44 42 40 39 40 40 37 34 32 28 33 28 28 28 26 24 22 21 22 22 22 22 22 23 23 22 20
26 28 29 31 33 34 36 38 40 41 43 45 46 47 47 47 44 41 41 40 41 39 37 34 30 30 30 26 26 28 26 24 23 22 22 22 22 22 21 21 22 22 21
26 28 30 32 34 36 39 41 42 44 46 48 49 49 48 46 43 43 40 43 41 37 36 34 32 30 26 25 25 26 26 24 23 23 22 21 21 21 20 19 20 21 22
28 30 32 35 37 41 43 47 50 48 49 50 51 50 47 45 40 41 44 39 35 35 37 34 31 29 25 24 26 24 24 23 24 22 22 21 20 19 19 17 19 20 20
32 35 38 40 43 46 48 50 51 53 54 53 50 49 46 42 42 43 39 38 33 33 35 34 29 27 23 23 27 24 22 22 23 21 22 20 20 19 17 17 17 19 19
36 39 41 44 46 48 49 51 52 52 52 51 49 45 43 38 34 33 34 36 29 34 35 33 28 26 24 24 25 25 22 21 21 21 21 20 20 19 17 15 16 18 17
39 42 45 47 48 49 50 50 50 49 48 46 44 42 38 34 30 27 30 33 34 34 33 29 26 25 27 26 25 25 23 21 19 20 20 20 21 20 17 15 15 16 17
43 45 46 48 49 50 50 50 49 48 46 45 44 40 37 35 33 36 35 32 36 33 28 25 23 22 25 23 21 22 23 20 18 19 21 21 22 20 18 15 14 15 15
45 46 47 49 50 49 48 46 45 46 46 45 42 38 34 27 26 23 23 26 24 25 23 21 20 21 24 24 19 20 22 22 20 19 18 19 21 20 18 16 15 14 14
46 47 48 48 47 46 44 43 42 42 41 41 38 31 27 21 20 20 21 21 22 21 22 23 19 21 23 20 17 18 19 20 20 20 21 20 19 19 19 17 16 14 14
46 47 47 46 45 43 42 41 39 38 37 36 32 26 22 22 25 27 24 25 31 22 22 21 21 21 25 19 24 22 21 20 21 21 22 23 23 22 21 18 18 15 15
46 45 45 43 42 41 39 37 36 35 34 33 31 27 29 22 21 20 21 25 30 29 26 23 23 23 25 27 28 26 25 27 27 24 24 24 24 23 22 21 19 17 16
45 44 42 41 40 38 36 35 34 33 32 31 29 29 28 35 37 32 25 23 26 31 28 25 24 23 23 26 30 33 34 33 32 24 24 23 23 24 23 21 21 19 18

GFSGL_700_spd_042.txt.gz
Wind_Speed
12 14 15 17 19 22 23 21 24 26 28 27 32 35 40 38 43 46 44 50 44 39 44 42 36 36 35 36 37 37 37 36 36 35 35 36 36 36 37 38 39 40 40
15 17 17 18 20 22 22 25 29 29 31 36 30 41 46 45 46 50 46 39 42 43 41 34 32 35 35 37 37 37 36 36 37 36 34 34 34 33 36 37 38 39 39
23 24 24 23 22 26 28 27 30 29 34 33 44 39 43 41 49 50 38 40 41 41 33 32 34 37 38 39 38 37 37 37 36 36 34 33 32 33 34 35 35 35 35
27 28 28 27 30 30 31 34 32 34 38 39 44 46 51 45 36 40 39 39 41 33 32 33 37 38 39 39 38 37 37 36 35 35 33 32 31 32 33 34 32 32 32
29 28 28 31 32 34 35 36 37 37 41 39 39 45 42 34 40 36 36 36 32 31 33 36 37 39 39 39 38 36 37 36 35 34 32 31 30 30 30 31 33 31 29
28 28 27 29 32 33 35 37 41 39 39 49 45 41 35 42 32 30 30 29 30 33 35 36 38 39 39 39 37 36 36 35 35 34 31 29 29 28 28 30 31 32 29
25 28 30 31 31 32 34 37 39 45 53 40 40 35 43 34 29 28 27 31 33 34 36 37 38 38 39 38 37 36 34 34 33 32 30 28 28 27 27 27 29 31 28
28 26 27 28 29 31 37 41 41 50 39 37 39 43 32 29 28 28 31 34 35 36 36 37 38 38 38 38 37 35 33 32 32 31 29 27 27 26 26 26 28 30 28
25 25 27 25 28 31 35 44 41 37 43 41 41 30 31 29 31 32 35 37 38 37 38 40 39 38 36 37 36 34 32 30 31 30 28 27 26 25 25 26 27 29 29
27 27 26 24 29 30 25 36 40 39 40 40 32 34 33 33 35 36 38 40 40 40 41 42 40 39 37 36 35 33 31 29 30 28 27 27 26 25 24 25 27 29 30
27 28 26 28 31 35 39 38 39 38 34 36 36 34 36 38 39 41 42 43 42 43 44 43 40 39 38 36 34 32 30 30 29 28 27 25 25 24 23 24 26 28 28
30 29 34 34 34 34 33 32 33 36 36 35 37 39 40 41 44 44 45 46 45 45 45 43 40 38 38 36 33 29 28 30 29 28 26 24 25 23 23 24 25 26 27
33 33 28 28 27 29 31 33 33 35 37 39 41 43 44 44 46 47 47 47 45 45 42 40 39 39 37 34 32 29 30 32 29 28 25 24 24 23 23 24 24 25 25
24 25 25 26 28 29 31 34 36 37 40 42 44 47 48 49 50 48 47 49 46 44 42 41 39 42 36 32 30 30 33 33 30 27 24 24 23 23 22 24 23 23 22
24 25 26 28 30 32 34 36 38 40 43 47 49 52 54 54 53 53 51 49 43 45 48 38 33 36 33 28 29 30 28 30 30 26 24 23 22 22 21 22 23 22 21
25 27 29 31 33 35 37 39 40 43 46 48 50 52 53 55 54 52 51 49 48 39 45 35 33 34 31 28 30 29 26 30 28 26 24 23 22 21 20 21 21 21 20
27 28 30 33 36 39 41 44 47 47 48 49 51 53 54 54 52 46 43 44 44 41 41 38 36 32 29 28 27 26 24 31 28 26 23 21 22 21 20 19 19 19 18
29 32 35 37 40 42 45 47 49 52 54 54 53 52 51 50 49 47 42 39 37 35 36 39 37 29 30 29 26 26 25 26 28 24 23 22 22 20 19 18 19 18 16
32 34 37 40 42 45 47 48 51 53 53 54 52 48 46 44 43 41 38 36 32 30 28 32 29 29 30 27 24 26 27 25 23 25 21 22 21 20 18 18 18 17 16
35 38 40 43 45 46 48 50 51 51 51 50 48 47 44 43 41 38 33 27 29 28 24 26 24 27 29 24 22 23 26 24 23 22 21 20 21 19 18 17 17 16 15
37 40 43 44 46 47 49 50 50 49 47 46 45 43 43 42 39 35 28 25 26 29 27 26 25 24 24 23 21 22 24 22 21 19 18 19 20 18 18 17 17 16 14
40 42 43 45 47 48 49 48 47 45 44 43 41 40 38 38 32 27 24 24 24 20 22 25 21 21 22 20 19 21 21 21 18 18 17 17 17 17 18 17 17 15 15
42 43 45 46 47 48 47 46 44 42 41 39 38 37 36 35 32 27 23 19 17 19 21 21 20 21 24 22 19 21 21 17 16 18 18 19 18 17 17 16 16 15 15
43 44 45 46 47 46 45 43 41 39 38 37 36 35 34 33 31 29 31 27 21 22 22 26 26 23 20 21 23 22 18 20 18 16 15 17 19 20 20 19 18 16 15
43 45 45 45 45 44 42 40 38 36 35 34 33 33 32 32 30 29 29 30 34 23 21 22 20 21 21 21 22 21 21 19 20 21 21 21 22 23 23 22 20 19 17
44 45 45 44 43 41 39 37 35 34 33 32 32 32 32 31 31 29 28 28 25 27 26 20 22 22 21 24 23 22 24 26 26 26 25 26 26 24 25 23 21 19 18

GFSGL_700_spd_045.txt.gz
Wind_Speed
14 15 18 19 22 23 24 26 29 25 26 27 28 29 34 37 36 39 38 43 42 39 39 39 37 36 32 32 34 35 36 36 39 37 38 35 35 35 36 36 35 35 36
14 16 18 20 21 22 23 25 24 27 28 29 29 34 38 40 35 45 49 43 35 40 37 35 34 32 32 34 36 36 36 37 39 39 36 36 34 34 35 34 34 34 34
19 22 25 26 26 26 26 24 26 27 31 35 32 40 39 41 41 38 35 33 36 35 33 34 30 32 34 36 36 36 37 39 38 38 36 36 33 34 33 32 31 31 32
24 26 29 29 29 28 28 29 30 30 32 33 36 36 40 44 45 35 31 36 34 32 33 30 31 34 35 36 37 37 38 38 37 37 37 34 33 33 32 31 30 29 29
28 30 31 31 30 29 30 32 32 32 33 34 36 44 44 43 36 32 37 33 31 31 30 31 33 34 36 36 37 38 38 37 37 37 36 34 32 32 31 30 29 28 27
26 27 29 30 30 32 33 32 28 32 33 45 41 46 36 34 34 36 30 31 30 31 31 32 33 35 36 37 37 38 38 36 35 36 34 32 32 31 30 29 28 28 28
26 26 28 30 32 33 32 30 28 34 35 45 42 34 37 36 39 33 29 31 32 31 33 34 34 36 38 38 38 39 39 36 35 35 33 31 32 30 29 28 27 27 27
25 26 27 29 31 32 31 28 33 36 37 32 33 37 38 37 31 29 29 31 32 34 36 36 37 38 39 38 38 39 37 37 34 34 33 30 30 29 28 27 27 27 26
24 25 26 28 29 29 27 25 27 26 31 37 37 37 33 31 31 30 32 35 37 38 38 39 39 40 39 39 39 39 37 35 33 33 31 30 29 28 27 27 26 27 25
25 24 25 26 25 23 24 26 31 35 36 33 31 33 32 31 31 35 37 40 41 41 42 42 41 41 41 40 39 38 36 31 33 31 29 29 29 28 26 26 26 26 26
25 27 27 25 26 28 26 25 25 26 28 31 32 32 33 35 37 38 40 43 44 46 46 46 44 42 41 38 35 34 34 31 31 28 28 28 28 28 26 25 25 25 25
27 27 27 25 22 22 23 25 28 30 31 33 35 36 37 38 41 43 45 47 48 50 50 49 45 42 39 37 35 34 31 31 30 27 27 27 27 27 26 25 24 24 24
27 22 21 21 22 24 26 28 29 32 34 36 38 40 42 44 45 46 48 50 51 52 52 50 45 41 39 39 36 33 30 28 32 33 32 28 27 28 25 24 23 22 22
20 21 22 22 24 26 28 30 31 33 36 39 42 44 47 48 50 51 52 52 52 51 49 47 44 42 35 36 29 30 27 28 28 31 29 28 26 26 25 23 21 20 20
20 21 22 23 25 27 29 32 34 37 40 43 46 49 51 52 54 55 56 55 53 52 51 46 40 42 37 31 27 27 26 27 31 27 26 28 26 25 23 22 20 19 19
21 22 24 26 28 30 32 33 36 39 42 44 47 50 52 54 55 55 54 52 49 46 45 44 42 39 35 27 26 26 27 27 31 30 29 29 25 24 22 20 19 18 18
22 25 27 29 32 34 36 39 41 41 43 45 48 50 52 53 53 52 50 48 45 42 40 38 37 35 36 33 31 28 28 25 26 28 30 27 24 23 21 19 18 17 16
25 27 30 32 35 37 39 41 43 45 47 49 51 52 53 51 49 47 45 43 40 37 34 31 27 26 26 28 28 25 24 24 24 28 27 25 24 22 20 18 18 16 16
27 29 32 34 36 39 41 43 45 48 50 52 52 51 48 46 44 43 41 38 35 32 29 26 22 23 21 23 21 20 22 22 22 26 25 22 23 21 18 18 18 16 15
29 31 33 36 38 40 42 45 47 49 51 51 50 48 46 43 41 40 38 37 31 25 23 23 19 13 17 19 20 21 20 21 21 24 22 22 22 21 18 18 16 15 14
30 33 35 38 39 41 44 46 48 50 49 47 45 42 41 40 39 38 36 35 33 27 22 20 21 26 19 19 20 20 20 21 20 20 20 21 20 20 17 17 15 14 14
32 35 37 38 40 42 45 47 48 47 45 42 40 38 37 36 35 34 33 31 31 28 25 22 21 23 23 20 19 18 19 20 20 21 18 17 16 16 16 15 14 14 14
35 37 38 39 41 44 46 46 44 42 40 39 38 36 35 34 33 32 32 30 29 29 26 21 22 23 23 20 19 19 20 18 21 23 20 16 16 15 14 14 13 12 13
36 37 39 40 42 44 44 42 40 39 38 37 36 35 34 32 32 31 31 30 29 28 28 24 19 22 21 19 19 21 19 20 15 19 19 19 17 15 15 15 14 13 13
37 38 40 41 42 42 41 39 38 37 37 35 35 34 34 33 33 34 35 32 30 28 25 24 24 19 22 22 21 23 19 16 17 16 21 19 18 15 14 15 16 17 16
38 39 40 42 42 41 39 38 37 36 35 34 34 35 35 36 36 37 34 31 29 27 25 24 22 23 19 21 21 21 20 17 17 22 21 20 21 21 19 18 19 19 17

GFSGL_700_spd_048.txt.gz
Wind_Speed
25 26 26 25 26 26 26 27 30 32 37 40 30 31 33 30 36 45 45 37 39 35 39 38 35 34 36 37 33 33 34 36 37 36 31 28 37 37 36 37 35 35 34
24 20 19 21 22 24 26 28 31 32 32 27 30 35 33 36 35 42 55 39 40 36 33 36 34 36 38 32 32 35 36 36 34 38 33 31 31 37 36 36 34 35 33
17 20 24 25 27 28 30 30 31 36 26 29 35 37 30 39 36 33 40 45 38 33 35 35 33 36 33 32 35 37 37 30 36 37 35 32 33 34 37 36 34 34 32
23 25 26 28 30 32 33 33 31 33 32 33 33 37 39 35 42 36 39 38 35 36 36 33 34 31 31 33 36 38 37 38 36 31 31 33 30 29 35 35 34 33 31
25 27 29 31 33 34 33 33 33 34 34 34 35 35 35 37 36 40 35 34 38 38 37 33 31 31 33 35 37 36 36 40 41 31 33 31 29 26 29 33 35 33 30
27 28 29 29 30 31 32 34 35 37 37 31 34 35 33 36 32 32 34 38 37 32 31 31 33 35 36 37 38 38 38 39 41 41 38 38 35 30 34 35 33 32 30
27 29 30 30 30 32 34 35 36 34 33 26 35 35 29 29 33 36 33 32 32 30 31 34 36 37 39 39 39 39 40 40 40 40 38 39 38 35 36 34 32 31 29
27 27 27 27 29 31 32 34 35 35 32 29 31 30 33 34 31 31 33 33 34 33 35 37 39 40 41 42 39 42 42 41 40 37 37 36 36 35 35 32 31 29 27
23 24 26 27 27 28 30 29 27 26 27 28 31 31 30 30 31 31 32 35 37 37 39 41 42 43 42 42 41 43 41 40 36 36 35 36 34 33 31 31 29 29 26
23 24 24 25 25 25 22 22 22 21 22 23 25 28 30 30 31 32 35 39 41 43 44 46 47 47 44 44 44 42 41 36 34 34 35 36 33 31 29 28 27 27 25
24 24 24 25 23 20 19 19 20 22 23 25 27 29 31 33 35 37 39 43 46 49 51 52 52 52 49 44 44 42 39 33 35 34 35 40 32 27 28 28 26 25 23
25 25 24 21 20 19 20 21 22 24 26 28 31 32 35 37 39 41 43 47 49 52 53 54 53 52 51 48 45 43 39 34 36 34 33 38 35 30 31 29 28 24 23
25 23 20 20 19 20 21 23 25 27 29 31 34 36 39 41 43 45 47 48 50 52 54 55 55 54 51 49 45 42 41 35 33 33 32 34 34 33 31 29 27 24 22
24 22 21 20 20 21 23 25 27 29 31 34 37 39 42 44 47 49 52 54 55 56 55 54 52 50 46 42 42 43 40 38 35 31 32 34 30 30 28 27 26 24 22
21 20 20 20 21 23 24 26 28 31 34 36 39 41 44 47 50 53 56 58 57 56 55 51 48 44 41 38 31 31 29 34 31 27 27 32 28 27 25 25 24 22 21
21 21 21 21 22 24 26 30 29 32 35 38 41 44 46 50 53 55 56 54 52 50 48 46 43 39 36 32 26 28 31 29 26 24 23 28 30 30 28 26 23 21 20
20 20 21 23 24 26 28 30 32 36 37 38 41 45 49 52 53 52 51 48 46 45 43 40 37 30 23 22 22 25 32 27 24 27 26 27 26 29 28 26 22 21 19
21 22 24 25 27 29 31 32 35 37 38 41 45 47 49 49 48 47 45 44 42 39 36 35 33 29 25 21 22 22 23 28 31 26 26 23 24 25 25 26 21 21 18
22 23 25 27 28 30 32 35 36 38 41 44 47 48 48 46 45 43 41 40 39 37 35 32 29 25 21 17 17 20 22 24 22 22 20 22 23 23 24 25 20 20 18
22 25 27 28 30 32 35 36 38 40 43 45 47 46 46 44 41 39 38 37 35 34 32 30 28 23 19 18 17 14 18 20 21 20 20 20 21 22 23 22 20 19 17
24 26 27 30 32 35 36 37 39 42 44 46 45 45 43 41 39 38 37 35 34 32 31 29 29 24 21 27 23 22 20 19 20 19 18 18 21 22 22 22 20 19 17
25 26 29 31 34 35 37 39 41 43 44 45 44 42 39 37 36 35 34 33 31 31 31 31 29 25 23 23 24 24 20 21 20 18 18 19 21 20 19 19 19 17 17
26 28 31 33 35 37 39 41 42 43 43 43 41 39 37 36 35 35 35 34 33 33 32 30 29 26 22 20 22 26 24 22 20 15 17 20 20 18 17 15 16 16 16
29 32 34 36 37 39 40 41 42 42 42 41 39 37 36 35 35 36 36 35 35 34 32 30 28 25 24 21 19 21 21 19 15 17 15 18 22 20 17 15 14 14 13
33 35 37 39 40 41 41 42 42 41 40 38 37 35 35 35 36 36 35 35 34 32 30 28 27 25 23 22 20 20 23 19 18 16 15 15 18 19 19 16 14 13 14
36 38 39 41 42 42 42 41 40 39 38 36 35 34 34 34 35 34 35 34 33 31 29 27 26 25 23 22 22 20 22 23 21 17 18 17 16 19 19 18 15 12 13